TimeHST,TemperatureF,Dew PointF,Humidity,Sea Level PressureIn,VisibilityMPH,Wind Direction,Wind SpeedMPH,Gust SpeedMPH,PrecipitationIn,Events,Conditions,WindDirDegrees,DateUTC
12:14 AM,42.8,35.6,76,29.77,10.0,South,36.8,42.6,N/A,Rain,Light Rain,180,2012-12-03 10:14:00
12:56 AM,42.1,35.1,76,29.80,10.0,South,34.5,40.3,N/A,Rain,Light Rain,180,2012-12-03 10:56:00
1:44 AM,41.0,35.6,81,29.81,10.0,South,25.3,35.7,N/A,Rain,Light Rain,190,2012-12-03 11:44:00
1:56 AM,41.0,35.1,79,29.82,10.0,South,25.3,34.5,N/A,Rain,Light Rain,190,2012-12-03 11:56:00
2:16 AM,39.2,35.6,87,29.83,10.0,South,29.9,34.5,N/A,,Mostly Cloudy,190,2012-12-03 12:16:00
2:56 AM,39.9,34.0,79,29.83,10.0,South,31.1,38.0,N/A,,Mostly Cloudy,190,2012-12-03 12:56:00
3:56 AM,37.9,34.0,86,29.86,10.0,South,25.3,33.4,N/A,,Mostly Cloudy,190,2012-12-03 13:56:00
4:56 AM,39.9,33.1,77,29.87,10.0,South,26.5,-,N/A,,Partly Cloudy,190,2012-12-03 14:56:00
5:56 AM,39.0,34.0,82,29.88,10.0,South,29.9,35.7,N/A,,Partly Cloudy,190,2012-12-03 15:56:00
6:56 AM,39.0,34.0,82,29.91,10.0,South,23.0,-,N/A,,Scattered Clouds,190,2012-12-03 16:56:00
7:56 AM,39.9,32.0,73,29.93,10.0,South,29.9,38.0,N/A,,Partly Cloudy,190,2012-12-03 17:56:00
8:56 AM,39.9,33.1,77,29.94,10.0,South,26.5,32.2,N/A,,Clear,190,2012-12-03 18:56:00
9:56 AM,39.0,33.1,79,29.95,10.0,South,20.7,-,N/A,,Partly Cloudy,190,2012-12-03 19:56:00
10:56 AM,39.9,32.0,73,29.97,10.0,South,24.2,29.9,N/A,,Scattered Clouds,190,2012-12-03 20:56:00
11:56 AM,39.0,32.0,76,29.99,10.0,SSW,26.5,34.5,N/A,,Mostly Cloudy,200,2012-12-03 21:56:00
12:56 PM,39.0,32.0,76,30.00,10.0,South,27.6,34.5,N/A,,Scattered Clouds,190,2012-12-03 22:56:00
1:56 PM,37.0,33.1,86,30.00,6.0,SW,17.3,35.7,N/A,Snow,Light Snow,220,2012-12-03 23:56:00
2:56 PM,41.0,33.1,73,29.99,10.0,SSW,20.7,-,N/A,,Partly Cloudy,200,2012-12-04 00:56:00
3:23 PM,41.0,33.8,76,29.99,10.0,SSW,18.4,-,N/A,,Mostly Cloudy,210,2012-12-04 01:23:00
3:34 PM,41.0,32.0,70,29.99,10.0,South,23.0,-,N/A,,Mostly Cloudy,190,2012-12-04 01:34:00
3:56 PM,39.9,30.9,70,29.99,10.0,SSW,24.2,-,N/A,,Mostly Cloudy,200,2012-12-04 01:56:00
4:56 PM,39.0,36.0,89,29.99,10.0,SW,16.1,29.9,N/A,,Mostly Cloudy,230,2012-12-04 02:56:00
5:17 PM,39.2,37.4,93,29.99,10.0,South,19.6,26.5,N/A,,Mostly Cloudy,190,2012-12-04 03:17:00
5:32 PM,39.2,37.4,93,30.00,10.0,SSW,17.3,-,N/A,,Scattered Clouds,210,2012-12-04 03:32:00
5:56 PM,37.9,36.0,93,30.00,10.0,South,19.6,-,N/A,,Mostly Cloudy,190,2012-12-04 03:56:00
6:56 PM,37.9,32.0,79,30.01,10.0,SW,17.3,-,N/A,,Scattered Clouds,220,2012-12-04 04:56:00
7:56 PM,37.0,32.0,82,30.01,10.0,South,12.7,-,N/A,,Partly Cloudy,180,2012-12-04 05:56:00
8:56 PM,37.9,28.9,70,30.01,10.0,SSW,17.3,-,N/A,,Partly Cloudy,200,2012-12-04 06:56:00
9:56 PM,37.9,28.9,70,30.01,10.0,SSW,18.4,-,N/A,,Scattered Clouds,210,2012-12-04 07:56:00
10:56 PM,37.0,30.0,76,30.01,10.0,SSW,15.0,-,N/A,,Overcast,200,2012-12-04 08:56:00
11:56 PM,36.0,30.9,82,30.01,10.0,SSW,9.2,-,N/A,,Mostly Cloudy,210,2012-12-04 09:56:00